www.pogodaiklimat.ru

Погода и климат >> Архив погоды >> Россия >> Чукотка >> Уэлен


ПОГОДА в Уэлене

АРХИВ ПОГОДЫ в Уэлене

Время (UTC), дата Ветер
(напр.,м/с)
 
Видим.   Явления Облачность Т
(С)
Тd
(С)
f
(%)
Тe
(С)
Тes
(С)
Комфортность P
(гПа)
Po
(гПа)
Тmin
(С)
Tmax
(С)
R
(мм)
R24
(мм)
S
(см)
09 11.08 СЗ 12-13
{14}
17 км слабый ливневой дождь 10/10 200 м
[Cb cap]
+9.8 +8.5 92 +5 +5 1001.6 1000.7
12 11.08 С 12-14
{17}
17 км слабый ливневой дождь 10/10 300 м
[Cb cap]
+7.2 +6.4 95 +1 +1 1004.2 1003.3
15 11.08 13-16
{19}
16 км слабый ливневой дождь н/о +5.2 +4.3 94 -2 -2 1004.8 1003.9
18 11.08 С 14-16
{18}
19 км слабый ливневой дождь 9/9 300 м
[Cb cap]
+5.4 +4.0 91 -2 -2 1005.7 1004.8 +5.2 5
21 11.08 С 14-17
{18}
18 км слабый ливневой дождь 9/9 300 м
[Cb cap]
+5.3 +2.3 81 -2 -2 1006.2 1005.3
00 12.08 С 13-15
{17}
20 км {ливн. осадки} 9/9 600 м
[Cu Sc]
+5.3 +1.8 78 -2 -2 1006.1 1005.2
03 12.08 С 15-17
{18}
20 км 10/6 600 м
[Cu Sc Ac trans Ci fib]
+5.4 +2.5 82 -2 -2 1006.0 1005.1
06 12.08 С 14-16
{18}
20 км 9/5 600 м
[Cu Sc Ac trans Ci fib]
+5.4 +2.5 82 -2 -2 1006.1 1005.2 +5.6 0.1
09 12.08 С 16-17
{20}
20 км 8/4 300 м
[Cu Sc Ac trans Ci fib]
+5.3 +1.8 78 -2 -2 1006.4 1005.5
12 12.08 С 17-19
{20}
24 км 10/4 300 м
[St Ac trans Ci fib]
+5.1 +2.4 83 -3 -3 1006.1 1005.2
15 12.08 С 16-18
{21}
20 км 10/3 300 м
[St Ac trans Ci fib]
+5.2 +2.5 83 -2 -2 1005.6 1004.7
18 12.08 С 15-17
{21}
20 км 10/5 300 м
[St Ac trans Ci fib]
+5.4 +2.7 83 -2 -2 1005.0 1004.1 +5.0
21 12.08 С 17-20
{24}
20 км 9/9 300 м
[Cu Sc]
+5.4 +2.5 82 -2 -2 1004.9 1004.0
00 13.08 С 17-20
{23}
19 км слабый ливневой дождь 10/10 300 м
[Cb cap]
+5.4 +3.5 88 -2 -2 1005.1 1004.2
03 13.08 С 17-21
{24}
17 км слабый ливневой дождь 10/10 300 м
[Cb cap]
+4.8 +3.6 92 -3 -3 1005.5 1004.6
06 13.08 С 16-19
{22}
16 км слабый ливневой дождь 10/10 300 м
[Cb cap]
+5.2 +4.0 92 -3 -3 1006.1 1005.2 +5.5 1
09 13.08 С 17-20
{23}
17 км слабый ливневой дождь 10/10 300 м
[Cb cap]
+5.4 +4.0 91 -3 -3 1007.4 1006.5
12 13.08 С 17-19
{23}
16 км слабый ливневой дождь 10/10 300 м
[Cb cap]
+5.6 +4.0 89 -2 -2 1008.6 1007.7
15 13.08 С 15-17
{21}
17 км в посл. час ливневой дождь 9/9 300 м
[Cu Sc]
+5.6 +4.0 89 -2 -2 1009.4 1008.5
18 13.08 С 16-17
{19}
18 км {ливн. осадки} 10/9 300 м
[Cu Sc Ci fib]
+5.4 +4.0 91 -2 -2 1010.0 1009.1 +5.2 0.8
21 13.08 С 14-16
{19}
20 км 9/9 300 м
[St]
+5.6 +4.0 89 -2 -2 1010.5 1009.6
00 14.08 С 14-16
{19}
20 км 10/10 300 м
[St]
+5.5 +4.3 92 -2 -2 1011.0 1010.1
03 14.08 С 14-16
{18}
20 км 9/9 300 м
[St]
+5.6 +4.0 89 -2 -2 1011.2 1010.3
06 14.08 С 13-15
{18}
20 км 9/9 300 м
[St]
+5.7 +3.8 88 -1 -1 1011.8 1010.9 +6.1
09 14.08 С 13-15
{18}
23 км 9/9 300 м
[St]
+5.7 +4.5 92 -1 -1 1011.8 1010.9
12 14.08 С 15-16
{18}
19 км 9/9 300 м
[St]
+5.5 +3.8 89 -2 -2 1011.0 1010.1
15 14.08 С 13-15
{18}
17 км 10/10 300 м
[St]
+5.7 +3.8 88 -1 -1 1010.3 1009.4
18 14.08 С 15-16
{19}
7000 м дымка 10/10 300 м
[St]
+5.1 +4.4 95 -3 -3 1009.7 1008.8 +4.8
21 14.08 С 14-16
{18}
8000 м дымка 10/10 300 м
[St]
+5.1 +4.4 95 -2 -2 1008.8 1007.9
00 15.08 С 13-15
{17}
13 км 10/10 300 м
[St]
+5.7 +5.0 95 -1 -1 1008.8 1007.9
03 15.08 С 13-14
{16}
16 км 9/9 300 м
[St]
+5.6 +4.4 92 -1 -1 1008.1 1007.2
06 15.08 С 11-13
{15}
18 км 9/9 300 м
[St]
+5.8 +4.4 91 -1 -1 1007.4 1006.5 +5.8
09 15.08 СЗ 11-14
{15}
19 км 10/10 300 м
[St]
+5.0 +3.6 91 -2 -2 1007.9 1007.0
12 15.08 СЗ 9-11
{15}
19 км 10/10 300 м
[St]
+4.4 +2.7 89 -2 -2 1007.3 1006.4
15 15.08 СЗ 10-11
{13}
20 км 10/10 300 м
[St]
+4.6 +2.4 86 -2 -2 1006.4 1005.5
18 15.08 СЗ 6
{13}
20 км 10/10 300 м
[St]
+4.6 +2.6 87 -1 -1 1005.3 1004.4 +4.2
21 15.08 СЗ 2
{7}
20 км {ливн. осадки} 8/6 600 м
[Sc Ac trans Ci fib]
+5.4 +1.6 76 +3 +5 1004.2 1003.3
00 16.08 СЗ 10-13
{15}
20 км {ливн. осадки} 10/9 300 м
[Cu Sc Ci fib]
+5.9 +3.5 85 -0 -0 1003.3 1002.4
03 16.08 С 8-10
{13}
20 км 9/4 300 м
[St Ac trans Ci fib]
+5.4 +3.2 86 -0 0 1002.0 1001.1
06 16.08 С 8
{12}
20 км 8/5 300 м
[St Ac lent Ci fib]
+5.0 +2.8 86 -1 -1 1000.9 1000.0 +7.2 0.0
09 16.08 СЗ 3
{10}
27 км 9/9 300 м
[St]
+5.3 +3.4 88 +2 +2 1000.0 999.1
12 16.08 СЗ 8-10
{12}
29 км 9/9 600 м
[Sc]
+6.3 +3.2 81 +1 +1 999.0 998.1
15 16.08 З 4
{10}
20 км 9/9 300 м
[Sc]
+5.3 +2.3 81 +1 +1 997.6 996.7
18 16.08 Ю 3
{8}
20 км 10/9 300 м
[Sc]
+5.6 +4.0 89 +2 +2 996.9 996.0 +5.0
21 16.08 Ю 6
{7}
19 км слабый ливневой дождь 9/9 300 м
[Cb cap]
+6.0 +4.6 91 +1 +1 996.0 995.1
00 17.08 Ю 8
{10}
19 км слабый ливневой дождь 9/9 300 м
[Cb cap]
+7.4 +4.6 82 +2 +3 994.8 994.0
03 17.08 С 9-10
{14}
19 км слабый ливневой дождь 10/10 300 м
[Cb cap]
+4.8 +3.1 89 -2 -2 996.4 995.5
06 17.08 З 4
{10}
19 км слабый ливневой дождь 10/10 300 м
[Cb cap]
+4.5 +2.2 85 0 0 997.6 996.7 +7.4 2
09 17.08 СЗ 6
{9}
45 км в посл. час ливневой дождь 9/9 300 м
[Cu Sc]
+4.4 +1.9 84 -1 -1 998.9 998.0
12 17.08 СЗ 7
{11}
19 км слабый ливневой дождь 10/10 300 м
[Cb cap]
+3.9 +2.1 88 -2 -2 999.7 998.8
15 17.08 СЗ 8-10
{11}
20 км в посл. час ливневой дождь 10/10 300 м
[Cu Sc]
+4.5 +2.5 87 -2 -2 1000.9 1000.0
18 17.08 СЗ 7
{12}
18 км слабый ливневой дождь 9/9 200 м
[Cb cap]
+4.4 +2.9 90 -1 -1 1001.9 1001.0 +3.4 2
21 17.08 СЗ 7
{12}
19 км слабый ливневой дождь 9/9 300 м
[Cb cap]
+4.7 +3.5 92 -1 -1 1003.3 1002.4
00 18.08 СЗ 7
{12}
20 км {ливн. осадки} 10/10 300 м
[Cu Sc]
+5.4 +3.7 89 -0 -0 1004.0 1003.1
03 18.08 СЗ 10-10
{14}
20 км {ливн. осадки} 9/9 300 м
[Cu Sc]
+6.0 +3.4 83 0 0 1004.6 1003.7
06 18.08 СЗ 10-10
{11}
20 км {ливн. осадки} 9/8 300 м
[Cu Sc Ac trans Ci fib]
+6.2 +4.3 88 0 0 1005.2 1004.3 +6.2 0.7

 

Местоположение метеостанции Уэлен (Чукотка, Россия): широта 66.16 долгота -169.00 высота над уровнем моря 7 м.

В архиве по умолчанию представлена погода в Уэлене за последнюю неделю. Архивные данные за месяц целиком и за предыдущие месяцы, начиная с января 2011 года, Вы можете получить, выбрав интересующий диапазон дат из раскрывающегося списка и нажав кнопку "Ввод!".

Внимание! Время в таблицах - всемирное. Для получения местного времени необходимо прибавить поправку, которая в Уэлене равна 12 ч.

Смотрите также архив погоды в соседних городах и на ближайших метеорологических станциях:

Погода на Мысе Ванкарем (Чукотка, Россия) (320 км)
Погода в Эгвекиноте (Чукотка, Россия) (448 км)
Погода на Острове Врангеля (Чукотка, Россия) (648 км)

Пояснения к столбцам:

Ветер - указаны скорость ветра в м/с - средняя за 10 мин, порывы в срок и между сроками (в фигурных скобках) и направление, откуда дует ветер: С - северный, СВ - северо-восточный, В - восточный, ЮВ - юго-восточный, Ю - южный, ЮЗ - юго-западный, З - западный, СЗ - северо-западный.
Видимость - горизонтальная дальность видимости в метрах или километрах. При видимости от 1 до 10 км при отсутствии осадков обычно наблюдается дымка, при ухудшении видимости до 1 км и менее - туман. В сухую погоду видимость может ухудшаться дымом, пылью или мглою.
Явления - указаны атмосферные явления, наблюдавшиеся в срок или в последний час перед сроком; фигурными скобками обозначены явления, наблюдавшиеся между сроками (за 1-3 часа до срока); квадратными скобками обозначены град или гололедные отложения с указанием их диаметра в мм.
Облачность - указаны через наклонную черту общая и нижняя облачность в баллах и высота нижней границы облаков в метрах; квадратными скобками обозначены формы облаков: Ci - перистые, Cs - перисто-слоистые, Cc - перисто-кучевые, Ac - высококучевые, As - высокослоистые, Sc - слоисто-кучевые, Ns - слоисто-дождевые, Cu - кучевые, Cb - кучево-дождевые. Подробнее классификацию облаков см. в Атласе облаков (PDF).
T - Температура воздуха - температура, измеренная на высоте 2 м над землей.
Td - Температура точки росы - температура, при понижении до которой содержащийся в воздухе водяной пар достигнет насыщения.
f - Относительная влажность воздуха - влажноcть воздуха, измеренная на высоте 2 м над землей.
Te - Эффективная температура - температура, которую ощущает одетый по сезону человек в тени. Характеристика душности погоды. При расчете учитывается влияние влажности воздуха и скорости ветра на теплоощущения человека.
Tes - Эффективная температура на солнце - температура, которую ощущает человек, с поправкой на солнечный нагрев. Характеристика знойности погоды. Зависит от высоты солнца над горизонтом, облачности и скорости ветра. Ночью, в пасмурную погоду, а также при ветре 12 м/с и более поправка равна нулю.
P - Атмосферное давление - приведенное к уровню моря атмосферное давление.
Po - Атмосферное давление - измеренное на уровне метеостанции атмосферное давление.
Tmin - Минимальная температура - минимум температуры воздуха на высоте 2 м над землей.
Tmax - Максимальная температура - максимум температуры воздуха на высоте 2 м над землей.
R - Количество осадков - Количество выпавших осадков за период времени, мм. При наведении курсора мыши на число - период времени, за который выпало указанное количество осадков.
R24 - Количество осадков - Количество выпавших осадков за 24 часа, мм.
S - Снежный покров - Высота снежного покрова, см. При наведении курсора мыши на число - состояние снежного покрова и степень покрытия местности в баллах.